User: anonymous   Login
Location: Unspecified
(0.0000°N, 0.0000°E)
Time: 07:24:25
(UTC+00:00)
Language:

Milstar 3 - Orbit

View from above orbital plane
View from above orbital plane
View from above satellite
View from above satellite

Ground track
Ground track

The orbit data is extracted from the following two-line orbital elements,

1 25724U 99023A   17285.45221493 0.00000000  00000-0  00000-0 0    09
2 25724  28.2236   5.7640 2132299  61.8577 298.1418  9.37477207    08
Epoch (UTC): 12 October 2017 10:51:11
Eccentricity: 0.2132299
inclination: 28.2236°
perigee height: 1097 km
apogee height: 5148 km
right ascension of ascending node: 5.7640°
argument of perigee: 61.8577°
revolutions per day: 9.37477207
mean anomaly at epoch: 298.1418°
orbit number at epoch: 0

The dashed part of the orbit path shows where the satellite is in the earth's shadow,  

DLR